Location: Morena
(32.7809°N, 117.2078°W)
Time: 12:50:31
(UTC+00:00)

Daily predictions for brighter satellites

Satellite Brightness Start Highest point End
(mag) Time Altitude Azimuth Time Altitude Azimuth Time Altitude Azimuth
USA 238 DEB 4.4 12:10:11 37° N 12:10:11 37° N 12:14:19 10° NNE
USA 238 4.4 12:10:15 38° N 12:10:15 38° N 12:14:26 10° NNE
Cosmos 2034 Rocket 4.0 12:08:28 48° N 12:10:21 77° E 12:16:39 10° S
Chandra Rocket (1) 4.3 12:15:52 13° SSE 12:15:52 13° SSE 12:16:17 10° SE
Cosmos 1656 Rocket 4.4 12:19:37 10° S 12:24:48 50° ESE 12:30:01 10° NNE
Cosmos 1486 Rocket 4.4 12:23:33 10° S 12:28:47 64° ESE 12:34:01 10° NNE
Cosmos 1943 Rocket 4.0 12:34:38 17° N 12:34:38 17° N 12:36:04 10° N
CZ-2C R/B 4.1 12:27:37 10° SE 12:32:35 35° ENE 12:37:28 10° N
Tsikada Rocket 3.8 12:26:29 10° SSW 12:32:37 73° W 12:38:52 10° N
APEX 4.3 12:34:36 36° ESE 12:34:36 36° ESE 12:37:04 10° SE
Cosmos 2082 Rocket 3.3 12:45:15 26° SW 12:45:15 26° SW 12:48:19 10° SSW
CZ-4B R/B 4.3 12:48:15 10° NNE 12:52:43 72° E 12:57:09 10° S
Cosmos 1812 3.7 12:52:31 10° N 12:56:14 47° E 12:59:55 10° SSE
Okean 3 Rocket 4.2 12:51:54 10° S 12:56:20 59° E 13:00:48 10° NNE
SL-19 R/B 4.3 12:51:31 10° SSE 12:57:11 86° ENE 13:02:46 10° NNW
Cosmos 1241 Rocket 4.4 12:53:49 20° NNW 12:58:16 82° ENE 13:04:28 10° SSE
Cosmos 921 Rocket 3.6 12:54:48 14° N 12:58:33 58° ENE 13:02:57 10° SSE
DELTA 2 R/B (1) 3.6 12:56:59 41° W 12:58:47 62° NNW 13:04:17 10° ENE
MOS 1-B Rocket 4.0 12:52:07 10° SSE 12:58:51 89° WSW 13:04:46 10° NNW
Cosmos 2098 Rocket 2.6 12:55:56 10° S 12:59:24 88° W 13:03:44 10° N
Envisat 2.8 12:55:18 10° N 13:00:22 74° WNW 13:05:25 10° SSW
Cosmos 968 Rocket 4.5 13:03:36 27° NW 13:03:36 27° NW 13:06:39 10° N
CZ-3 R/B 3.9 12:50:32 10° SW 13:05:21 31° S 13:10:59 10° ESE
Cosmos 1766 Rocket 3.4 13:04:03 10° S 13:08:23 85° W 13:12:43 10° N
Meteor 2-3 Rocket 4.4 13:05:07 10° SW 13:10:00 30° WNW 13:14:58 10° NNW
CENTAUR R/B 4.0 13:12:13 17° NW 13:12:13 17° NW 13:15:56 10° N
Cosmos 1151 Rocket 3.3 13:07:53 10° N 13:12:16 72° E 13:16:37 10° SSE
Meteor 1-31 Rocket 2.7 13:10:47 10° N 13:14:38 60° WNW 13:18:28 10° SSW
Cosmos 1782 3.0 13:14:10 29° NW 13:15:40 44° W 13:19:25 10° SSW
Hubble Space Telescope 2.5 13:15:04 17° SW 13:16:44 22° SSW 13:19:56 10° SSE
Cosmos 1862 3.2 13:13:11 10° SSW 13:17:05 65° W 13:21:00 10° N
ATLAS 5 CENTAUR R/B 2.6 13:15:48 10° S 13:19:17 40° ESE 13:22:58 10° NE
Cosmos 1354 Rocket 3.9 13:16:15 10° SSW 13:21:30 86° WNW 13:26:48 10° NNE
FALCON 9 R/B 4.0 13:05:29 20° W 13:24:21 86° N 13:31:05 10° E
Cosmos 1328 Rocket 3.8 13:21:39 10° N 13:26:01 70° E 13:30:19 10° SSE
COSMO-SKYMED 1 2.5 13:21:58 10° S 13:26:15 64° W 13:30:34 10° NNW
H-2A R/B 3.5 13:23:11 10° NNW 13:26:22 27° WNW 13:29:35 10° SW
ADEOS 3.5 13:21:39 10° NNE 13:26:53 84° WNW 13:32:06 10° SSW
CZ-4C R/B 3.1 13:25:53 10° SSE 13:29:01 64° ENE 13:32:07 10° N
Gbstr 26 Del rocket 3.4 13:33:47 20° WNW 13:36:10 43° SW 13:40:29 10° SSE
CZ-2C R/B 3.2 13:31:14 10° NNE 13:36:10 77° ESE 13:41:20 10° S
ATLAS 3B R/B 3.1 13:32:03 10° SSW 13:38:23 63° ESE 13:44:58 10° NE
CZ-4B R/B 2.7 13:37:26 10° NNE 13:41:00 81° ESE 13:44:36 10° S
Cosmos 1408 Rocket 3.4 13:39:09 10° S 13:43:27 75° W 13:47:44 10° N
Cosmos 2369 Rocket 3.3 13:42:59 10° WSW 13:47:01 20° WNW 13:51:04 10° NNW
OAO 3 Rocket 4.4 13:43:59 12° W 13:47:55 32° SSW 13:52:16 10° SSE
OE (NEXTSAT) 4.5 13:45:47 15° WNW 13:48:24 59° SW 13:51:45 10° SE
Uosat 12 SS-18 rocket 4.5 13:43:59 10° SW 13:48:43 67° WNW 13:54:35 10° NNE
Centaur D-1A AC-35 3.6 13:46:25 10° WSW 13:50:04 31° S 13:53:43 10° ESE
Cosmos 1743 Rocket 4.1 13:46:42 10° S 13:51:03 64° E 13:55:23 10° NNE
FengYun 1-2 T 4.4 13:52:05 10° NNE 13:57:35 80° ESE 14:03:04 10° S
H-2A R/B 4.0 13:56:37 10° NE 14:01:02 33° E 14:05:27 10° SSE
USA 215 3.5 13:54:50 10° SE 14:01:19 70° NE 14:07:48 10° NW
FAST Rocket 3.8 13:58:50 10° S 14:01:38 90° WNW 14:04:16 10° N
Cosmos 2279 Rocket 4.3 13:56:10 10° NNW 14:01:58 44° W 14:07:46 10° SSW
Nadezhda 4 Rocket 4.0 13:58:44 10° SSW 14:04:48 64° W 14:10:58 10° N
DMSP B5D2-2 4.1 14:00:29 10° S 14:05:41 76° WSW 14:10:55 10° NNW
Cosmos 1515 Rocket 3.5 14:02:23 10° N 14:06:44 73° W 14:11:01 10° S
SJ 16-02 1.3 14:03:15 10° SSW 14:07:34 60° WNW 14:11:54 10° N
SL-27 R/B 3.5 14:05:07 10° N 14:08:35 48° ENE 14:11:59 10° SSE
Cosmos 1340 Rocket 2.7 14:04:47 10° SSW 14:08:42 70° W 14:12:38 10° N
Meteor 1-20 Rocket 4.4 14:06:47 10° S 14:12:17 81° E 14:17:55 10° N
